Location: Wildlife_Club
(35.6000°N, 81.4330°W)
Time: 09:11:37
(UTC-04:00)

Vanguard 2 Rocket - Pass Details

Date: 22 June 2019
Orbit: 553 x 3327 km, 32.9° (Epoch: 24 August)

Event Time Altitude Azimuth Distance (km) Brightness Sun altitude
Rises 01:58:08 0° 273° (W) 4,856 10.6 -30.5°
Reaches altitude 10° 02:00:47 10° 272° (W) 4,163 10.2 -30.4°
Maximum altitude 02:13:02 77° 189° (S) 2,660 8.9 -30.0°
Drops below altitude 10° 02:32:34 10° 107° (ESE) 6,248 11.1 -29.0°
Sets 02:37:36 0° 107° (ESE) 7,313 11.5 -28.7°
